| time (UTC) | temp F | wind direction | speed MPH | gust MPH | rain 1hr in | rain 24hr in | rain mn in | humidity % | barometer mb |
| 20260901124542 | 66 | 81 | 0.0 | 0.0 | 0.00 | 0.00 | 0.00 | 87 | 1016.9 |
| 20260901123041 | 66 | 81 | 0.0 | 2.0 | 0.00 | 0.00 | 0.00 | 87 | 1016.9 |
| 20260901121540 | 66 | 81 | 0.0 | 1.0 | 0.00 | 0.00 | 0.00 | 87 | 1016.9 |
| 20260901120040 | 66 | 81 | 0.0 | 1.0 | 0.00 | 0.00 | 0.00 | 87 | 1016.9 |
| 20260901114603 | 65 | 81 | 0.0 | 0.0 | 0.00 | 0.01 | 0.00 | 88 | 1016.8 |
| 20260901113039 | 65 | 81 | 0.0 | 3.0 | 0.00 | 0.01 | 0.00 | 88 | 1016.5 |
| 20260901111541 | 65 | 81 | 0.0 | 0.0 | 0.00 | 0.01 | 0.00 | 88 | 1016.6 |
| 20260901110038 | 65 | 81 | 0.0 | 0.0 | 0.00 | 0.01 | 0.00 | 88 | 1016.5 |
| 20260901104535 | 65 | 81 | 0.0 | 0.0 | 0.00 | 0.01 | 0.00 | 87 | 1016.5 |
| 20260901103036 | 65 | 81 | 0.0 | 0.0 | 0.00 | 0.01 | 0.00 | 87 | 1016.4 |
| 20260901101535 | 65 | 81 | 0.0 | 0.0 | 0.00 | 0.01 | 0.00 | 87 | 1016.2 |
| 20260901100034 | 65 | 81 | 0.0 | 0.0 | 0.00 | 0.01 | 0.00 | 87 | 1016.2 |
| 20260901094538 | 65 | 81 | 0.0 | 0.0 | 0.00 | 0.01 | 0.00 | 87 | 1016.2 |
| 20260901093033 | 65 | 81 | 0.0 | 0.0 | 0.00 | 0.01 | 0.00 | 87 | 1016.2 |
| 20260901091532 | 65 | 81 | 0.0 | 0.0 | 0.00 | 0.01 | 0.00 | 87 | 1016.2 |
| 20260901090030 | 65 | 81 | 0.0 | 0.0 | 0.00 | 0.01 | 0.00 | 87 | 1016.2 |
| 20260901084530 | 65 | 81 | 0.0 | 0.0 | 0.00 | 0.01 | 0.00 | 86 | 1016.3 |
| 20260901083027 | 65 | 81 | 0.0 | 0.0 | 0.00 | 0.01 | 0.00 | 86 | 1016.6 |
| 20260901081525 | 65 | 81 | 0.0 | 0.0 | 0.00 | 0.01 | 0.00 | 86 | 1017.0 |
| 20260901080025 | 65 | 81 | 0.0 | 0.0 | 0.00 | 0.01 | 0.00 | 86 | 1017.1 |
| 20260901074524 | 66 | 81 | 0.0 | 0.0 | 0.00 | 0.01 | 0.00 | 86 | 1016.9 |
| 20260901073025 | 65 | 81 | 0.0 | 0.0 | 0.00 | 0.01 | 0.00 | 86 | 1016.9 |
| 20260901071522 | 66 | 81 | 0.0 | 0.0 | 0.00 | 0.01 | 0.00 | 86 | 1017.0 |
| 20260901070023 | 65 | 81 | 0.0 | 0.0 | 0.00 | 0.01 | 0.00 | 86 | 1017.0 |
| 20260901064521 | 66 | 81 | 0.0 | 0.0 | 0.00 | 0.01 | 0.00 | 86 | 1017.1 |
| 20260901063025 | 66 | 81 | 0.0 | 0.0 | 0.00 | 0.01 | 0.00 | 85 | 1017.3 |
| 20260901061525 | 65 | 81 | 0.0 | 0.0 | 0.00 | 0.01 | 0.00 | 85 | 1017.2 |
| 20260901060018 | 66 | 81 | 0.0 | 0.0 | 0.00 | 0.01 | 0.00 | 85 | 1017.2 |
| 20260901054518 | 66 | 81 | 0.0 | 0.0 | 0.00 | 0.01 | 0.00 | 85 | 1017.1 |
| 20260901053016 | 66 | 81 | 0.0 | 0.0 | 0.00 | 0.01 | 0.00 | 85 | 1017.4 |
| 20260901051515 | 66 | 81 | 0.0 | 0.0 | 0.00 | 0.01 | 0.00 | 85 | 1017.4 |
| 20260901050014 | 66 | 81 | 0.0 | 0.0 | 0.00 | 0.01 | 0.00 | 84 | 1017.4 |
| 20260901044531 | 66 | 81 | 0.0 | 0.0 | 0.00 | 0.01 | 0.00 | 84 | 1017.6 |
| 20260901043012 | 66 | 81 | 0.0 | 0.0 | 0.00 | 0.01 | 0.00 | 84 | 1017.4 |
| 20260901041522 | 66 | 81 | 0.0 | 0.0 | 0.00 | 0.01 | 0.00 | 84 | 1017.6 |
| 20260901040008 | 66 | 81 | 0.0 | 0.0 | 0.00 | 0.01 | 0.00 | 84 | 1017.8 |
| 20260901034507 | 66 | 81 | 0.0 | 0.0 | 0.00 | 0.03 | 0.01 | 83 | 1017.7 |
| 20260901033021 | 66 | 81 | 0.0 | 0.0 | 0.00 | 0.03 | 0.01 | 84 | 1017.6 |
| 20260901031509 | 66 | 81 | 0.0 | 0.0 | 0.00 | 0.03 | 0.01 | 84 | 1017.7 |
| 20260901030006 | 66 | 81 | 0.0 | 0.0 | 0.00 | 0.03 | 0.01 | 84 | 1017.8 |
| 20260901024507 | 67 | 81 | 0.0 | 0.0 | 0.00 | 0.03 | 0.01 | 83 | 1017.7 |
| 20260901023005 | 67 | 81 | 0.0 | 1.0 | 0.00 | 0.03 | 0.01 | 83 | 1017.8 |
| 20260901021511 | 67 | 81 | 0.0 | 0.0 | 0.00 | 0.03 | 0.01 | 83 | 1017.8 |
| 20260901020004 | 67 | 81 | 0.0 | 0.0 | 0.00 | 0.03 | 0.01 | 83 | 1018.0 |
| 20260901014504 | 67 | 81 | 0.0 | 0.0 | 0.00 | 0.03 | 0.01 | 83 | 1018.1 |
| 20260901013003 | 67 | 81 | 0.0 | 0.0 | 0.00 | 0.03 | 0.01 | 82 | 1018.1 |
| 20260901011504 | 67 | 81 | 0.0 | 1.0 | 0.00 | 0.03 | 0.01 | 82 | 1017.9 |
| 20260901010006 | 68 | 81 | 0.0 | 0.0 | 0.00 | 0.03 | 0.01 | 82 | 1017.9 |
| 20260901004502 | 68 | 81 | 0.0 | 1.0 | 0.00 | 0.03 | 0.01 | 81 | 1017.8 |
| 20260901003003 | 68 | 81 | 0.0 | 1.0 | 0.00 | 0.03 | 0.01 | 81 | 1017.9 |
| 20260901001601 | 69 | 81 | 0.0 | 2.0 | 0.00 | 0.03 | 0.01 | 80 | 1017.9 |
| 20260901000059 | 69 | 81 | 0.0 | 3.0 | 0.00 | 0.03 | 0.01 | 80 | 1017.9 |
| 20260831234604 | 69 | 81 | 0.0 | 1.0 | 0.00 | 0.03 | 0.01 | 79 | 1017.9 |
| 20260831233105 | 70 | 81 | 0.0 | 2.0 | 0.00 | 0.03 | 0.01 | 79 | 1017.9 |
| 20260831231601 | 70 | 81 | 0.0 | 2.0 | 0.00 | 0.03 | 0.01 | 78 | 1017.9 |
| 20260831230106 | 71 | 81 | 0.0 | 2.0 | 0.00 | 0.03 | 0.01 | 77 | 1017.8 |
| 20260831224557 | 71 | 81 | 0.0 | 1.0 | 0.00 | 0.03 | 0.01 | 77 | 1017.8 |
| 20260831223101 | 72 | 81 | 0.0 | 2.0 | 0.00 | 0.03 | 0.01 | 75 | 1018.0 |
| 20260831221605 | 72 | 81 | 0.0 | 3.0 | 0.00 | 0.03 | 0.01 | 75 | 1018.1 |
| 20260831220054 | 73 | 81 | 0.0 | 3.0 | 0.00 | 0.03 | 0.01 | 74 | 1018.0 |
| 20260831214603 | 73 | 81 | 0.0 | 2.0 | 0.00 | 0.03 | 0.01 | 73 | 1017.9 |
| 20260831213053 | 74 | 81 | 0.0 | 2.0 | 0.00 | 0.03 | 0.01 | 72 | 1017.8 |
| 20260831211552 | 74 | 81 | 1.0 | 4.0 | 0.00 | 0.03 | 0.01 | 71 | 1017.8 |
| 20260831210052 | 75 | 81 | 1.0 | 3.0 | 0.00 | 0.03 | 0.01 | 69 | 1017.8 |
| 20260831204551 | 75 | 132 | 0.0 | 3.0 | 0.00 | 0.03 | 0.01 | 67 | 1017.8 |
| 20260831203059 | 75 | 228 | 0.0 | 4.0 | 0.00 | 0.03 | 0.01 | 65 | 1017.7 |
| 20260831201553 | 75 | 242 | 0.0 | 1.0 | 0.00 | 0.03 | 0.01 | 66 | 1017.6 |
| 20260831200052 | 76 | 242 | 0.0 | 2.0 | 0.00 | 0.03 | 0.01 | 64 | 1017.7 |
| 20260831194602 | 76 | 248 | 0.0 | 2.0 | 0.00 | 0.03 | 0.01 | 64 | 1017.8 |
| 20260831193047 | 76 | 252 | 2.0 | 8.0 | 0.00 | 0.03 | 0.01 | 61 | 1017.9 |
| 20260831191546 | 76 | 86 | 0.0 | 6.0 | 0.00 | 0.03 | 0.01 | 62 | 1018.1 |
| 20260831190056 | 76 | 331 | 1.0 | 4.0 | 0.00 | 0.03 | 0.01 | 58 | 1018.2 |
| 20260831184544 | 76 | 331 | 1.0 | 4.0 | 0.00 | 0.03 | 0.01 | 61 | 1018.4 |
| 20260831183042 | 75 | 5 | 0.0 | 3.0 | 0.00 | 0.03 | 0.01 | 63 | 1018.6 |
| 20260831181539 | 75 | 112 | 1.0 | 3.0 | 0.00 | 0.03 | 0.01 | 62 | 1018.6 |
| 20260831180042 | 74 | 142 | 0.0 | 4.0 | 0.00 | 0.03 | 0.01 | 63 | 1018.7 |
| 20260831174535 | 74 | 343 | 0.0 | 4.0 | 0.00 | 0.03 | 0.01 | 66 | 1019.2 |
| 20260831173034 | 73 | 79 | 0.0 | 2.0 | 0.00 | 0.03 | 0.01 | 68 | 1019.1 |
| 20260831171532 | 73 | 79 | 0.0 | 4.0 | 0.00 | 0.03 | 0.01 | 67 | 1019.0 |
| 20260831170031 | 73 | 75 | 0.0 | 5.0 | 0.00 | 0.03 | 0.01 | 66 | 1019.3 |
| 20260831164529 | 73 | 91 | 0.0 | 3.0 | 0.00 | 0.03 | 0.01 | 67 | 1019.5 |
| 20260831163029 | 72 | 91 | 0.0 | 3.0 | 0.00 | 0.03 | 0.01 | 69 | 1019.5 |
| 20260831161528 | 72 | 91 | 0.0 | 2.0 | 0.00 | 0.03 | 0.01 | 69 | 1019.6 |
| 20260831160030 | 73 | 95 | 0.0 | 2.0 | 0.00 | 0.03 | 0.01 | 68 | 1019.6 |
| 20260831154525 | 72 | 96 | 2.0 | 4.0 | 0.00 | 0.03 | 0.01 | 62 | 1019.7 |
| 20260831153024 | 72 | 297 | 0.0 | 4.0 | 0.00 | 0.03 | 0.01 | 68 | 1020.0 |
| 20260831151527 | 72 | 283 | 0.0 | 4.0 | 0.00 | 0.03 | 0.01 | 68 | 1020.0 |
| 20260831150020 | 71 | 251 | 1.0 | 4.0 | 0.00 | 0.03 | 0.01 | 70 | 1019.9 |
| 20260831144517 | 70 | 107 | 0.0 | 6.0 | 0.00 | 0.03 | 0.01 | 73 | 1019.8 |
| 20260831143014 | 69 | 279 | 0.0 | 4.0 | 0.00 | 0.03 | 0.01 | 75 | 1019.9 |
| 20260831141513 | 67 | 204 | 0.0 | 3.0 | 0.00 | 0.03 | 0.01 | 76 | 1019.8 |
| 20260831140015 | 67 | 89 | 1.0 | 7.0 | 0.00 | 0.03 | 0.01 | 79 | 1019.7 |
| 20260831134508 | 66 | 89 | 0.0 | 4.0 | 0.00 | 0.03 | 0.01 | 81 | 1019.7 |
| 20260831133006 | 65 | 113 | 0.0 | 8.0 | 0.00 | 0.03 | 0.01 | 82 | 1019.6 |
| 20260831131505 | 65 | 104 | 1.0 | 8.0 | 0.00 | 0.03 | 0.01 | 85 | 1019.7 |
| 20260831130003 | 64 | 102 | 0.0 | 6.0 | 0.00 | 0.03 | 0.01 | 86 | 1019.6 |